ORBCOMM FM28 [-]

Last updated on Fri Dec 29 2023 00:02:54 GMT+0000 (Coordinated Universal Time)

1 25482U 98053H 23361.78126657 .00001538 00000+0 57859-3 0 9996 2 25482 45.0044 228.1727 0003931 113.3972 246.7289 14.35488635321068
UTC large
Height (km)
Speed (km/s)
/
Latitude / Longitude
Inclination (degrees)
Orbital Period (minutes)
Azimuth
Elevation
Range (km)
Doppler Factor

Next 0 passes for location: London (51.5072 / 0.1276)

Sorry there are no passes over London.
ORBCOMM FM28 [-]